BLKT80 YPDN-YPDN

Flight info

Callsign BLKT80
Flight time 1h 29m
Altitude 6000
Route DAR M263 DAR
Aircraft P8/M-SADE2E3FGHIRWZ/LB1

Departure

Time 2026-05-07 01:38
Airport Darwin International Airport / RAAF Darwin (YPDN)

Arrival

Time 2026-05-07 03:08
Airport Darwin International Airport / RAAF Darwin (YPDN)
Time Latitude Longitude Altitude Speed Heading
2026-05-07 01:14 -12.41726 130.86718 98 ft 0 kts 360°
2026-05-07 01:31 -12.41722 130.86718 98 ft 2 kts 360°
2026-05-07 01:32 -12.41696 130.86722 98 ft 6 kts 20°
2026-05-07 01:32 -12.41680 130.86758 98 ft 6 kts 90°
2026-05-07 01:32 -12.41680 130.86802 98 ft 6 kts 91°
2026-05-07 01:32 -12.41681 130.86845 98 ft 6 kts 90°
2026-05-07 01:33 -12.41681 130.86887 98 ft 6 kts 90°
2026-05-07 01:33 -12.41666 130.86934 99 ft 8 kts 54°
2026-05-07 01:33 -12.41611 130.86946 99 ft 10 kts 356°
2026-05-07 01:33 -12.41532 130.86942 99 ft 13 kts 357°
2026-05-07 01:34 -12.41432 130.86940 99 ft 15 kts 356°
2026-05-07 01:34 -12.41348 130.86889 99 ft 14 kts 302°
2026-05-07 01:34 -12.41314 130.86795 97 ft 14 kts 289°
2026-05-07 01:34 -12.41283 130.86705 99 ft 13 kts 289°
2026-05-07 01:35 -12.41254 130.86618 97 ft 13 kts 289°
2026-05-07 01:35 -12.41225 130.86534 99 ft 12 kts 295°
2026-05-07 01:35 -12.41160 130.86482 99 ft 12 kts 340°
2026-05-07 01:35 -12.41079 130.86486 100 ft 12 kts 19°
2026-05-07 01:36 -12.41066 130.86491 101 ft 0 kts 20°
2026-05-07 01:36 -12.41065 130.86491 101 ft 1 kts 20°
2026-05-07 01:36 -12.41056 130.86495 101 ft 2 kts 21°
2026-05-07 01:36 -12.41035 130.86503 102 ft 4 kts 21°
2026-05-07 01:37 -12.41008 130.86514 103 ft 5 kts 20°
2026-05-07 01:37 -12.40971 130.86528 104 ft 7 kts 20°
2026-05-07 01:37 -12.40954 130.86581 104 ft 0 kts 111°
2026-05-07 01:38 -12.41021 130.86776 101 ft 66 kts 109°
2026-05-07 01:38 -12.41248 130.87445 98 ft 131 kts 110°
2026-05-07 01:38 -12.41553 130.88439 508 ft 148 kts 106°
2026-05-07 01:38 -12.41851 130.89507 1194 ft 159 kts 109°
2026-05-07 01:39 -12.42228 130.90666 1662 ft 188 kts 110°
2026-05-07 01:39 -12.42676 130.92022 1944 ft 211 kts 110°
2026-05-07 01:39 -12.43171 130.93495 2358 ft 232 kts 110°
2026-05-07 01:39 -12.43716 130.95092 3078 ft 240 kts 110°
2026-05-07 01:40 -12.44285 130.96714 3886 ft 246 kts 109°
2026-05-07 01:40 -12.44845 130.98397 4592 ft 250 kts 108°
2026-05-07 01:40 -12.45405 131.00109 4935 ft 257 kts 108°
2026-05-07 01:40 -12.45968 131.01820 4976 ft 253 kts 108°
2026-05-07 01:41 -12.46529 131.03529 4994 ft 255 kts 108°
2026-05-07 01:41 -12.47160 131.05244 5054 ft 261 kts 120°
2026-05-07 01:41 -12.48535 131.06456 5651 ft 270 kts 158°
2026-05-07 01:41 -12.50395 131.06682 6569 ft 274 kts 185°
2026-05-07 01:42 -12.52216 131.06092 7402 ft 280 kts 208°
2026-05-07 01:42 -12.53703 131.04781 8141 ft 288 kts 233°
2026-05-07 01:42 -12.54512 131.02908 8955 ft 291 kts 260°
2026-05-07 01:42 -12.54520 131.00849 9846 ft 291 kts 274°
2026-05-07 01:43 -12.54389 130.98792 10462 ft 300 kts 274°
2026-05-07 01:43 -12.54268 130.96573 10649 ft 324 kts 273°
2026-05-07 01:43 -12.54168 130.94205 10893 ft 343 kts 272°
2026-05-07 01:43 -12.54089 130.91745 11537 ft 346 kts 272°
2026-05-07 01:44 -12.54025 130.89280 11894 ft 345 kts 271°
2026-05-07 01:44 -12.53969 130.86838 12010 ft 346 kts 271°
2026-05-07 01:44 -12.53927 130.84368 12007 ft 349 kts 268°
2026-05-07 01:44 -12.54418 130.81939 12011 ft 352 kts 247°
2026-05-07 01:45 -12.55770 130.79866 12033 ft 353 kts 228°
2026-05-07 01:45 -12.57572 130.78134 12024 ft 360 kts 223°
2026-05-07 01:45 -12.59471 130.76414 12016 ft 368 kts 223°
2026-05-07 01:45 -12.61393 130.74679 12011 ft 367 kts 223°
2026-05-07 01:46 -12.63293 130.72947 12001 ft 365 kts 223°
2026-05-07 01:46 -12.65179 130.71210 12001 ft 364 kts 223°
2026-05-07 01:46 -12.67055 130.69470 12005 ft 364 kts 224°
2026-05-07 01:46 -12.68931 130.67724 12008 ft 364 kts 223°
2026-05-07 01:47 -12.70804 130.65980 12010 ft 365 kts 224°
2026-05-07 01:47 -12.72673 130.64219 12001 ft 365 kts 226°
2026-05-07 01:47 -12.74274 130.62227 12004 ft 364 kts 238°
2026-05-07 01:47 -12.75503 130.59969 12007 ft 363 kts 248°
2026-05-07 01:48 -12.76421 130.57566 12010 ft 363 kts 250°
2026-05-07 01:48 -12.77299 130.55140 12001 ft 363 kts 250°
2026-05-07 01:48 -12.78170 130.52708 12012 ft 363 kts 251°
2026-05-07 01:48 -12.79042 130.50281 12005 ft 363 kts 250°
2026-05-07 01:49 -12.79920 130.47855 12006 ft 363 kts 250°
2026-05-07 01:49 -12.80802 130.45427 12010 ft 363 kts 250°
2026-05-07 01:49 -12.81676 130.43033 12013 ft 363 kts 250°
2026-05-07 01:49 -12.82561 130.40616 12007 ft 363 kts 250°
2026-05-07 01:50 -12.83447 130.38196 12005 ft 363 kts 250°
2026-05-07 01:50 -12.84336 130.35772 12006 ft 363 kts 250°
2026-05-07 01:50 -12.85222 130.33356 12018 ft 363 kts 250°
2026-05-07 01:50 -12.86109 130.30937 11996 ft 363 kts 250°
2026-05-07 01:51 -12.86997 130.28513 12005 ft 363 kts 250°
2026-05-07 01:51 -12.87884 130.26093 12012 ft 362 kts 250°
2026-05-07 01:51 -12.88769 130.23678 12009 ft 362 kts 250°
2026-05-07 01:51 -12.89656 130.21256 12010 ft 363 kts 250°
2026-05-07 01:52 -12.90542 130.18835 12006 ft 363 kts 250°
2026-05-07 01:52 -12.91428 130.16413 12014 ft 363 kts 250°
2026-05-07 01:52 -12.92314 130.13989 12013 ft 364 kts 250°
2026-05-07 01:52 -12.93194 130.11585 11862 ft 356 kts 250°
2026-05-07 01:53 -12.94049 130.09247 11735 ft 339 kts 250°
2026-05-07 01:53 -12.94855 130.07046 11587 ft 320 kts 250°
2026-05-07 01:53 -12.95613 130.04972 11453 ft 303 kts 250°
2026-05-07 01:53 -12.96361 130.02924 11448 ft 313 kts 250°
2026-05-07 01:54 -12.97127 130.00822 11423 ft 309 kts 250°
2026-05-07 01:54 -12.97866 129.98799 11180 ft 299 kts 250°
2026-05-07 01:54 -12.98588 129.96820 10833 ft 296 kts 250°
2026-05-07 01:54 -12.99310 129.94840 10377 ft 297 kts 250°
2026-05-07 01:55 -13.00033 129.92857 9927 ft 296 kts 249°
2026-05-07 01:55 -13.00753 129.90882 9433 ft 296 kts 249°
2026-05-07 01:55 -13.01471 129.88913 8933 ft 295 kts 249°
2026-05-07 01:55 -13.02189 129.86942 8445 ft 295 kts 249°
2026-05-07 01:56 -13.02905 129.84975 7960 ft 294 kts 248°
2026-05-07 01:56 -13.03620 129.83012 7487 ft 294 kts 247°
2026-05-07 01:56 -13.04333 129.81054 7018 ft 293 kts 247°
2026-05-07 01:56 -13.05045 129.79099 6548 ft 291 kts 248°
2026-05-07 01:57 -13.05752 129.77155 6057 ft 290 kts 246°
2026-05-07 01:57 -13.06446 129.75248 5573 ft 289 kts 245°
2026-05-07 01:57 -13.07149 129.73318 5086 ft 288 kts 246°
2026-05-07 01:57 -13.07848 129.71395 4602 ft 288 kts 246°
2026-05-07 01:58 -13.08547 129.69475 4120 ft 287 kts 247°
2026-05-07 01:58 -13.09244 129.67557 3630 ft 287 kts 246°
2026-05-07 01:58 -13.09706 129.66286 3310 ft 287 kts 245°
2026-05-07 01:58 -13.10245 129.64304 2804 ft 291 kts 258°
2026-05-07 01:59 -13.10399 129.62232 2349 ft 292 kts 267°
2026-05-07 01:59 -13.10268 129.60156 2041 ft 290 kts 275°
2026-05-07 01:59 -13.10018 129.58164 1979 ft 272 kts 275°
2026-05-07 01:59 -13.09783 129.56304 1962 ft 255 kts 274°
2026-05-07 02:00 -13.09544 129.54522 1970 ft 253 kts 281°
2026-05-07 02:00 -13.08790 129.52908 1993 ft 252 kts 314°
2026-05-07 02:00 -13.07384 129.51913 1987 ft 244 kts 348°
2026-05-07 02:00 -13.05747 129.51664 1998 ft 236 kts
2026-05-07 02:01 -13.04111 129.51709 1998 ft 234 kts 11°
2026-05-07 02:01 -13.02500 129.51889 1971 ft 232 kts 15°
2026-05-07 02:01 -13.00900 129.52095 1963 ft 231 kts 15°
2026-05-07 02:01 -12.99307 129.52297 1993 ft 231 kts 15°
2026-05-07 02:02 -12.97709 129.52494 1978 ft 232 kts 15°
2026-05-07 02:02 -12.96103 129.52728 1984 ft 233 kts 23°
2026-05-07 02:02 -12.94764 129.53511 1991 ft 215 kts 56°
2026-05-07 02:02 -12.94158 129.54807 1974 ft 195 kts 89°
2026-05-07 02:03 -12.94195 129.56169 1981 ft 190 kts 100°
2026-05-07 02:03 -12.94370 129.57512 1992 ft 189 kts 101°
2026-05-07 02:03 -12.94546 129.58838 1971 ft 187 kts 100°
2026-05-07 02:03 -12.94709 129.60148 1982 ft 190 kts 99°
2026-05-07 02:04 -12.94855 129.61502 1989 ft 191 kts 99°
2026-05-07 02:04 -12.95005 129.62850 1973 ft 189 kts 100°
2026-05-07 02:04 -12.95157 129.64182 1975 ft 188 kts 100°
2026-05-07 02:04 -12.95308 129.65514 1984 ft 188 kts 100°
2026-05-07 02:05 -12.95463 129.66846 1993 ft 189 kts 99°
2026-05-07 02:05 -12.95625 129.68173 1976 ft 190 kts 99°
2026-05-07 02:05 -12.95797 129.69519 1973 ft 191 kts 100°
2026-05-07 02:05 -12.95970 129.70868 1974 ft 191 kts 100°
2026-05-07 02:06 -12.96143 129.72215 1976 ft 190 kts 100°
2026-05-07 02:06 -12.96315 129.73563 1972 ft 191 kts 100°
2026-05-07 02:06 -12.96488 129.74912 1975 ft 191 kts 99°
2026-05-07 02:06 -12.96670 129.76263 1995 ft 192 kts 99°
2026-05-07 02:07 -12.96842 129.77624 1982 ft 193 kts 99°
2026-05-07 02:07 -12.97160 129.80356 1983 ft 193 kts 99°
2026-05-07 02:07 -12.97334 129.81719 1974 ft 193 kts 105°
2026-05-07 02:08 -12.98015 129.82866 1976 ft 192 kts 139°
2026-05-07 02:08 -12.99289 129.83330 1976 ft 205 kts 173°
2026-05-07 02:08 -13.00725 129.83118 1990 ft 209 kts 180°
2026-05-07 02:08 -13.02143 129.82913 1989 ft 208 kts 179°
2026-05-07 02:09 -13.03582 129.82743 1977 ft 208 kts 178°
2026-05-07 02:09 -13.05021 129.82582 1981 ft 208 kts 179°
2026-05-07 02:09 -13.06454 129.82405 1996 ft 207 kts 179°
2026-05-07 02:09 -13.07887 129.82224 1975 ft 207 kts 179°
2026-05-07 02:10 -13.09312 129.82042 1967 ft 205 kts 179°
2026-05-07 02:10 -13.10722 129.81855 1969 ft 205 kts 179°
2026-05-07 02:10 -13.12143 129.81668 1998 ft 208 kts 179°
2026-05-07 02:10 -13.13588 129.81478 1983 ft 209 kts 179°
2026-05-07 02:11 -13.15018 129.81284 1975 ft 208 kts 179°
2026-05-07 02:11 -13.16448 129.81095 1976 ft 206 kts 179°
2026-05-07 02:11 -13.17867 129.80915 1974 ft 204 kts 179°
2026-05-07 02:11 -13.19276 129.80746 1980 ft 204 kts 179°
2026-05-07 02:12 -13.20685 129.80572 1974 ft 203 kts 179°
2026-05-07 02:12 -13.22077 129.80394 1970 ft 201 kts 179°
2026-05-07 02:12 -13.23493 129.80212 1991 ft 208 kts 179°
2026-05-07 02:12 -13.24947 129.80036 1999 ft 212 kts 179°
2026-05-07 02:13 -13.26395 129.79869 1995 ft 212 kts 179°
2026-05-07 02:13 -13.27862 129.79701 1972 ft 212 kts 179°
2026-05-07 02:13 -13.29324 129.79528 1986 ft 211 kts 179°
2026-05-07 02:13 -13.30782 129.79344 1983 ft 212 kts 183°
2026-05-07 02:14 -13.32136 129.78681 1975 ft 226 kts 217°
2026-05-07 02:14 -13.32963 129.77286 1975 ft 237 kts 251°
2026-05-07 02:14 -13.33005 129.75575 2008 ft 244 kts 275°
2026-05-07 02:14 -13.32787 129.73844 1993 ft 246 kts 274°
2026-05-07 02:15 -13.32581 129.72102 1990 ft 246 kts 274°
2026-05-07 02:15 -13.32373 129.70359 1976 ft 246 kts 274°
2026-05-07 02:15 -13.32155 129.68618 1959 ft 245 kts 274°
2026-05-07 02:15 -13.31935 129.66882 1979 ft 246 kts 274°
2026-05-07 02:16 -13.31713 129.65129 1994 ft 249 kts 274°
2026-05-07 02:16 -13.31494 129.63354 1991 ft 251 kts 274°
2026-05-07 02:16 -13.31283 129.61578 2004 ft 250 kts 274°
2026-05-07 02:16 -13.31076 129.59807 1979 ft 249 kts 274°
2026-05-07 02:17 -13.30870 129.58045 1980 ft 248 kts 274°
2026-05-07 02:17 -13.30663 129.56289 1972 ft 248 kts 274°
2026-05-07 02:17 -13.30460 129.54534 1979 ft 247 kts 274°
2026-05-07 02:17 -13.30260 129.52787 1984 ft 246 kts 274°
2026-05-07 02:18 -13.30062 129.51042 1986 ft 246 kts 274°
2026-05-07 02:18 -13.29864 129.49291 1991 ft 247 kts 274°
2026-05-07 02:18 -13.29666 129.47570 1981 ft 248 kts 274°
2026-05-07 02:18 -13.29464 129.45812 1976 ft 248 kts 274°
2026-05-07 02:19 -13.29261 129.44056 1986 ft 248 kts 274°
2026-05-07 02:19 -13.29060 129.42295 1987 ft 249 kts 274°
2026-05-07 02:19 -13.28868 129.40519 1994 ft 251 kts 274°
2026-05-07 02:19 -13.28671 129.38734 1994 ft 253 kts 274°
2026-05-07 02:20 -13.28469 129.36937 1979 ft 253 kts 274°
2026-05-07 02:20 -13.28264 129.35145 1976 ft 253 kts 274°
2026-05-07 02:20 -13.28060 129.33357 1967 ft 251 kts 274°
2026-05-07 02:20 -13.27854 129.31585 1968 ft 249 kts 274°
2026-05-07 02:21 -13.27389 129.29889 1961 ft 247 kts 302°
2026-05-07 02:21 -13.26197 129.28666 1991 ft 245 kts 336°
2026-05-07 02:21 -13.24591 129.28224 2001 ft 237 kts
2026-05-07 02:21 -13.22951 129.28209 1988 ft 234 kts 12°
2026-05-07 02:22 -13.21360 129.28444 1979 ft 231 kts 14°
2026-05-07 02:22 -13.19766 129.28658 1979 ft 231 kts 14°
2026-05-07 02:22 -13.18168 129.28837 1992 ft 231 kts 14°
2026-05-07 02:22 -13.16569 129.29027 1975 ft 231 kts 14°
2026-05-07 02:23 -13.14979 129.29252 1968 ft 231 kts 14°
2026-05-07 02:23 -13.13382 129.29467 1967 ft 231 kts 14°
2026-05-07 02:23 -13.11792 129.29664 1968 ft 230 kts 14°
2026-05-07 02:23 -13.10206 129.29858 1973 ft 229 kts 13°
2026-05-07 02:24 -13.08653 129.30052 1967 ft 228 kts 14°
2026-05-07 02:24 -13.07199 129.30500 1957 ft 210 kts 47°
2026-05-07 02:24 -13.06483 129.31714 1979 ft 200 kts 88°
2026-05-07 02:24 -13.06488 129.33142 1977 ft 202 kts 95°
2026-05-07 02:25 -13.06625 129.34568 1971 ft 200 kts 101°
2026-05-07 02:25 -13.06837 129.35966 1972 ft 197 kts 101°
2026-05-07 02:25 -13.07048 129.37342 1971 ft 195 kts 101°
2026-05-07 02:25 -13.07253 129.38709 1969 ft 194 kts 101°
2026-05-07 02:26 -13.07464 129.40142 2003 ft 221 kts 101°
2026-05-07 02:26 -13.07698 129.41758 1990 ft 233 kts 100°
2026-05-07 02:26 -13.07930 129.43412 1981 ft 235 kts 100°
2026-05-07 02:26 -13.08159 129.45073 1968 ft 236 kts 100°
2026-05-07 02:27 -13.08385 129.46724 1966 ft 237 kts 100°
2026-05-07 02:27 -13.08612 129.48393 1972 ft 236 kts 100°
2026-05-07 02:27 -13.08837 129.50061 1964 ft 236 kts 100°
2026-05-07 02:27 -13.09062 129.51729 1975 ft 236 kts 100°
2026-05-07 02:28 -13.09286 129.53389 1968 ft 235 kts 100°
2026-05-07 02:28 -13.09509 129.55049 1965 ft 235 kts 100°
2026-05-07 02:28 -13.09732 129.56706 1974 ft 234 kts 99°
2026-05-07 02:28 -13.09954 129.58359 1985 ft 234 kts 100°
2026-05-07 02:29 -13.10175 129.60009 1969 ft 233 kts 100°
2026-05-07 02:29 -13.10392 129.61633 1969 ft 231 kts 100°
2026-05-07 02:29 -13.10855 129.63182 1963 ft 227 kts 123°
2026-05-07 02:29 -13.11884 129.64401 1975 ft 226 kts 130°
2026-05-07 02:30 -13.12998 129.65537 1976 ft 227 kts 137°
2026-05-07 02:30 -13.14230 129.66558 1985 ft 228 kts 139°
2026-05-07 02:30 -13.15492 129.67563 1972 ft 231 kts 140°
2026-05-07 02:30 -13.16773 129.68578 1992 ft 234 kts 139°
2026-05-07 02:31 -13.18063 129.69603 1998 ft 237 kts 139°
2026-05-07 02:31 -13.19376 129.70647 1978 ft 240 kts 139°
2026-05-07 02:31 -13.20698 129.71701 1973 ft 240 kts 140°
2026-05-07 02:31 -13.22014 129.72752 1969 ft 239 kts 140°
2026-05-07 02:32 -13.23325 129.73799 1969 ft 238 kts 140°
2026-05-07 02:32 -13.24622 129.74837 1976 ft 236 kts 139°
2026-05-07 02:32 -13.25911 129.75869 1974 ft 234 kts 139°
2026-05-07 02:32 -13.27191 129.76894 1961 ft 233 kts 139°
2026-05-07 02:33 -13.28466 129.77918 1974 ft 233 kts 139°
2026-05-07 02:33 -13.29744 129.78943 1971 ft 233 kts 139°
2026-05-07 02:33 -13.31025 129.79971 1965 ft 234 kts 139°
2026-05-07 02:33 -13.32306 129.81001 1977 ft 234 kts 139°
2026-05-07 02:34 -13.33590 129.82031 1973 ft 234 kts 140°
2026-05-07 02:34 -13.34872 129.83060 1970 ft 234 kts 139°
2026-05-07 02:34 -13.36141 129.84078 1976 ft 235 kts 139°
2026-05-07 02:34 -13.37423 129.85108 1972 ft 235 kts 140°
2026-05-07 02:35 -13.38712 129.86143 1973 ft 235 kts 140°
2026-05-07 02:35 -13.39998 129.87177 1973 ft 234 kts 139°
2026-05-07 02:35 -13.41276 129.88212 1974 ft 234 kts 140°
2026-05-07 02:35 -13.42560 129.89240 1974 ft 233 kts 140°
2026-05-07 02:36 -13.43843 129.90256 1973 ft 233 kts 140°
2026-05-07 02:36 -13.45130 129.91279 1987 ft 234 kts 140°
2026-05-07 02:36 -13.46422 129.92317 1978 ft 237 kts 142°
2026-05-07 02:36 -13.47945 129.92976 1971 ft 244 kts 170°
2026-05-07 02:37 -13.49643 129.92733 1978 ft 256 kts 197°
2026-05-07 02:37 -13.51082 129.91609 1976 ft 270 kts 226°
2026-05-07 02:37 -13.51881 129.89839 1988 ft 280 kts 256°
2026-05-07 02:37 -13.51817 129.87833 1996 ft 287 kts 284°
2026-05-07 02:38 -13.50884 129.86030 1980 ft 288 kts 313°
2026-05-07 02:38 -13.49416 129.84633 1967 ft 289 kts 323°
2026-05-07 02:38 -13.47835 129.83360 1976 ft 288 kts 324°
2026-05-07 02:38 -13.46257 129.82088 1967 ft 289 kts 324°
2026-05-07 02:39 -13.44675 129.80820 1968 ft 288 kts 324°
2026-05-07 02:39 -13.43117 129.79578 1964 ft 287 kts 324°
2026-05-07 02:39 -13.41546 129.78318 1962 ft 286 kts 324°
2026-05-07 02:39 -13.39980 129.77059 1955 ft 285 kts 324°
2026-05-07 02:40 -13.38421 129.75814 1969 ft 284 kts 324°
2026-05-07 02:40 -13.36857 129.74576 1961 ft 285 kts 324°
2026-05-07 02:40 -13.35282 129.73318 1990 ft 291 kts 324°
2026-05-07 02:40 -13.33676 129.72026 1987 ft 293 kts 324°
2026-05-07 02:41 -13.32092 129.70739 1970 ft 290 kts 324°
2026-05-07 02:41 -13.30517 129.69451 1965 ft 288 kts 324°
2026-05-07 02:41 -13.28955 129.68177 1974 ft 285 kts 324°
2026-05-07 02:41 -13.27211 129.67229 1962 ft 293 kts 354°
2026-05-07 02:42 -13.25185 129.67436 2450 ft 291 kts 32°
2026-05-07 02:42 -13.23653 129.68628 3786 ft 267 kts 51°
2026-05-07 02:42 -13.22581 129.70105 5006 ft 256 kts 64°
2026-05-07 02:42 -13.21705 129.71727 5773 ft 264 kts 65°
2026-05-07 02:43 -13.20842 129.73429 6565 ft 270 kts 65°
2026-05-07 02:43 -13.19973 129.75157 7382 ft 275 kts 65°
2026-05-07 02:43 -13.19083 129.76922 8062 ft 284 kts 64°
2026-05-07 02:43 -13.18165 129.78726 8884 ft 287 kts 63°
2026-05-07 02:44 -13.17230 129.80554 9567 ft 293 kts 62°
2026-05-07 02:44 -13.16277 129.82407 9927 ft 296 kts 62°
2026-05-07 02:44 -13.15320 129.84281 9954 ft 297 kts 62°
2026-05-07 02:44 -13.14368 129.86154 9964 ft 297 kts 62°
2026-05-07 02:45 -13.13734 129.87399 9972 ft 297 kts 62°
2026-05-07 02:45 -13.12457 129.89889 9974 ft 297 kts 62°
2026-05-07 02:45 -13.11492 129.91762 9974 ft 298 kts 62°
2026-05-07 02:45 -13.10521 129.93638 9973 ft 298 kts 62°
2026-05-07 02:46 -13.09553 129.95505 9965 ft 298 kts 62°
2026-05-07 02:46 -13.08893 129.96774 9965 ft 298 kts 62°
2026-05-07 02:46 -13.07919 129.98648 9965 ft 298 kts 62°
2026-05-07 02:46 -13.06955 130.00498 9965 ft 298 kts 62°
2026-05-07 02:47 -13.05967 130.02395 9967 ft 298 kts 62°
2026-05-07 02:47 -13.05004 130.04242 9960 ft 298 kts 62°
2026-05-07 02:47 -13.04028 130.06113 9961 ft 297 kts 62°
2026-05-07 02:47 -13.03054 130.07981 9959 ft 297 kts 62°
2026-05-07 02:48 -13.02078 130.09849 9957 ft 297 kts 62°
2026-05-07 02:48 -13.01104 130.11716 9959 ft 297 kts 62°
2026-05-07 02:48 -13.00130 130.13581 9956 ft 297 kts 62°
2026-05-07 02:48 -12.99155 130.15448 9956 ft 297 kts 62°
2026-05-07 02:49 -12.98180 130.17315 9955 ft 297 kts 62°
2026-05-07 02:49 -12.97206 130.19179 9956 ft 297 kts 62°
2026-05-07 02:49 -12.96233 130.21041 9956 ft 297 kts 62°
2026-05-07 02:49 -12.95257 130.22907 9956 ft 297 kts 62°
2026-05-07 02:50 -12.94283 130.24770 9957 ft 297 kts 62°
2026-05-07 02:50 -12.93308 130.26635 9956 ft 297 kts 62°
2026-05-07 02:50 -12.92334 130.28499 9955 ft 297 kts 62°
2026-05-07 02:50 -12.91356 130.30367 9956 ft 297 kts 62°
2026-05-07 02:51 -12.90380 130.32232 9957 ft 297 kts 62°
2026-05-07 02:51 -12.89403 130.34099 9956 ft 297 kts 62°
2026-05-07 02:51 -12.88427 130.35964 9956 ft 297 kts 62°
2026-05-07 02:51 -12.87449 130.37831 9955 ft 297 kts 62°
2026-05-07 02:52 -12.86469 130.39703 9953 ft 297 kts 62°
2026-05-07 02:52 -12.85491 130.41570 9951 ft 298 kts 62°
2026-05-07 02:52 -12.84512 130.43439 9954 ft 298 kts 62°
2026-05-07 02:52 -12.83533 130.45308 9955 ft 298 kts 62°
2026-05-07 02:53 -12.82565 130.47155 9952 ft 298 kts 62°
2026-05-07 02:53 -12.81584 130.49026 9950 ft 298 kts 61°
2026-05-07 02:53 -12.80601 130.50902 9948 ft 299 kts 61°
2026-05-07 02:53 -12.79619 130.52774 9953 ft 299 kts 62°
2026-05-07 02:54 -12.78635 130.54651 9946 ft 299 kts 61°
2026-05-07 02:54 -12.77650 130.56529 9947 ft 299 kts 61°
2026-05-07 02:54 -12.76664 130.58406 9949 ft 299 kts 61°
2026-05-07 02:54 -12.75678 130.60285 9947 ft 300 kts 61°
2026-05-07 02:55 -12.74592 130.62103 9945 ft 300 kts 51°
2026-05-07 02:55 -12.73155 130.63636 9948 ft 299 kts 39°
2026-05-07 02:55 -12.71503 130.64928 9955 ft 298 kts 36°
2026-05-07 02:55 -12.69845 130.66188 9914 ft 294 kts 36°
2026-05-07 02:56 -12.68210 130.67440 9751 ft 290 kts 37°
2026-05-07 02:56 -12.66617 130.68673 9525 ft 285 kts 37°
2026-05-07 02:56 -12.65042 130.69895 9282 ft 282 kts 37°
2026-05-07 02:56 -12.63431 130.71026 8980 ft 281 kts 24°
2026-05-07 02:57 -12.61538 130.71395 8704 ft 279 kts 355°
2026-05-07 02:57 -12.59700 130.70826 8436 ft 277 kts 330°
2026-05-07 02:57 -12.58226 130.69570 8163 ft 276 kts 312°
2026-05-07 02:57 -12.56824 130.68240 7881 ft 275 kts 324°
2026-05-07 02:58 -12.55285 130.67090 7583 ft 270 kts 325°
2026-05-07 02:58 -12.53709 130.66096 7313 ft 263 kts 333°
2026-05-07 02:58 -12.52115 130.65259 7096 ft 251 kts 334°
2026-05-07 02:58 -12.50560 130.64517 6812 ft 241 kts 342°
2026-05-07 02:59 -12.48996 130.63999 6565 ft 231 kts 345°
2026-05-07 02:59 -12.47512 130.63534 6472 ft 215 kts 346°
2026-05-07 02:59 -12.46111 130.63207 6361 ft 199 kts 354°
2026-05-07 02:59 -12.44757 130.63027 6254 ft 196 kts 356°
2026-05-07 03:00 -12.43386 130.62852 6005 ft 201 kts 356°
2026-05-07 03:00 -12.41993 130.62741 5776 ft 199 kts
2026-05-07 03:00 -12.40644 130.62792 5519 ft 194 kts
2026-05-07 03:00 -12.39315 130.62858 5289 ft 188 kts
2026-05-07 03:01 -12.38032 130.62952 5165 ft 183 kts 15°
2026-05-07 03:01 -12.36782 130.63228 4923 ft 185 kts 18°
2026-05-07 03:01 -12.35524 130.63542 4714 ft 187 kts 19°
2026-05-07 03:01 -12.34369 130.64088 4419 ft 181 kts 50°
2026-05-07 03:02 -12.33802 130.65172 4198 ft 172 kts 83°
2026-05-07 03:02 -12.33951 130.66335 4060 ft 164 kts 111°
2026-05-07 03:02 -12.34369 130.67460 4047 ft 171 kts 110°
2026-05-07 03:02 -12.34770 130.68547 3994 ft 154 kts 110°
2026-05-07 03:03 -12.35142 130.69544 3997 ft 150 kts 110°
2026-05-07 03:03 -12.35522 130.70557 4007 ft 156 kts 110°
2026-05-07 03:03 -12.35913 130.71595 4001 ft 156 kts 111°
2026-05-07 03:03 -12.36284 130.72636 3900 ft 156 kts 109°
2026-05-07 03:04 -12.36640 130.73657 3677 ft 150 kts 109°
2026-05-07 03:04 -12.36970 130.74648 3399 ft 144 kts 109°
2026-05-07 03:04 -12.37279 130.75584 3142 ft 138 kts 109°
2026-05-07 03:04 -12.37585 130.76505 2887 ft 136 kts 109°
2026-05-07 03:05 -12.37887 130.77419 2641 ft 135 kts 110°
2026-05-07 03:05 -12.38185 130.78317 2400 ft 133 kts 110°
2026-05-07 03:05 -12.38482 130.79210 2115 ft 134 kts 110°
2026-05-07 03:05 -12.38792 130.80129 1793 ft 139 kts 110°
2026-05-07 03:06 -12.39103 130.81081 1451 ft 143 kts 112°
2026-05-07 03:06 -12.39424 130.82039 1078 ft 141 kts 111°
2026-05-07 03:06 -12.39737 130.82968 849 ft 136 kts 110°
2026-05-07 03:06 -12.40047 130.83900 676 ft 142 kts 112°
2026-05-07 03:07 -12.40375 130.84876 480 ft 147 kts 113°
2026-05-07 03:07 -12.40718 130.85891 264 ft 153 kts 111°
2026-05-07 03:07 -12.41053 130.86877 110 ft 141 kts 111°
2026-05-07 03:07 -12.41348 130.87739 99 ft 109 kts 109°
2026-05-07 03:08 -12.41545 130.88318 95 ft 51 kts 109°
2026-05-07 03:08 -12.41673 130.88432 98 ft 23 kts 194°
2026-05-07 03:08 -12.41767 130.88400 99 ft 12 kts 204°
2026-05-07 03:08 -12.41819 130.88339 98 ft 12 kts 259°
2026-05-07 03:09 -12.41806 130.88259 100 ft 11 kts 289°
2026-05-07 03:09 -12.41781 130.88183 98 ft 11 kts 289°
2026-05-07 03:09 -12.41757 130.88109 100 ft 11 kts 289°
2026-05-07 03:09 -12.41733 130.88038 98 ft 10 kts 289°
2026-05-07 03:10 -12.41709 130.87969 98 ft 10 kts 289°
2026-05-07 03:10 -12.41687 130.87901 98 ft 10 kts 289°
2026-05-07 03:10 -12.41665 130.87836 98 ft 10 kts 289°
2026-05-07 03:10 -12.41643 130.87772 98 ft 9 kts 289°
2026-05-07 03:11 -12.41622 130.87710 99 ft 9 kts 289°
2026-05-07 03:11 -12.41602 130.87648 124 ft 10 kts 289°
2026-05-07 03:11 -12.41577 130.87574 99 ft 12 kts 289°
2026-05-07 03:11 -12.41545 130.87480 99 ft 16 kts 289°
2026-05-07 03:12 -12.41505 130.87363 99 ft 19 kts 289°
2026-05-07 03:12 -12.41460 130.87228 99 ft 21 kts 289°
2026-05-07 03:12 -12.41413 130.87090 99 ft 20 kts 289°
2026-05-07 03:12 -12.41405 130.86957 98 ft 20 kts 225°
2026-05-07 03:13 -12.41536 130.86941 99 ft 19 kts 177°
2026-05-07 03:13 -12.41643 130.86950 99 ft 10 kts 176°
2026-05-07 03:13 -12.41711 130.86954 99 ft 10 kts 176°
2026-05-07 03:13 -12.41778 130.86954 97 ft 9 kts 189°
2026-05-07 03:14 -12.41813 130.86906 99 ft 9 kts 268°
2026-05-07 03:14 -12.41814 130.86840 99 ft 9 kts 269°
2026-05-07 03:14 -12.41788 130.86725 98 ft 9 kts 330°
2026-05-07 03:15 -12.41736 130.86718 98 ft 3 kts 359°
2026-05-07 03:15 -12.41726 130.86718 98 ft 0 kts 358°